GW1031 Weather Reports


Display with metric or nautical units.
time (UTC)temp
F
wind
direction
speed
MPH
gust
MPH
rain 1hr
in
rain 24hr
in
rain mn
in
humidity
%
barometer
mb
20260901212203 85 110 1.0 1.0 0.00 0.01 0.01 36 1022.8
20260901211702 84 235 0.0 1.0 0.00 0.01 0.01 35 1022.6
20260901211159 83 179 2.0 2.0 0.00 0.01 0.01 33 1022.9
20260901210654 84 323 2.0 2.0 0.00 0.01 0.01 33 1023.1
20260901210150 84 288 1.0 1.0 0.00 0.01 0.01 34 1022.9
20260901205645 83 243 1.0 1.0 0.00 0.01 0.01 34 1023.1
20260901205140 82 171 2.0 2.0 0.00 0.01 0.01 33 1023.4
20260901204636 84 170 2.0 2.0 0.00 0.01 0.01 32 1023.4
20260901204131 84 252 0.0 1.0 0.00 0.01 0.01 35 1023.1
20260901203631 83 92 1.0 2.0 0.00 0.01 0.01 32 1023.4
20260901203126 82 198 0.0 1.0 0.00 0.01 0.01 35 1023.7
20260901202625 82 61 0.0 1.0 0.00 0.01 0.01 38 1023.8
20260901202121 82 143 2.0 2.0 0.00 0.01 0.01 37 1023.7
20260901201618 82 92 1.0 1.0 0.00 0.01 0.01 39 1023.7
20260901201116 81 113 2.0 2.0 0.00 0.01 0.01 38 1023.6
20260901200616 79 245 2.0 2.0 0.00 0.01 0.01 38 1024.1
20260901200111 78 130 0.0 1.0 0.00 0.01 0.01 39 1023.6
20260901195609 77 228 0.0 1.0 0.00 0.01 0.01 44 1023.8
20260901195109 76 208 0.0 0.0 0.00 0.01 0.01 41 1023.8
20260901194604 77 188 0.0 0.0 0.00 0.01 0.01 40 1024.2
20260901194059 78 102 2.0 2.0 0.00 0.01 0.01 38 1023.8
20260901193554 82 78 0.0 1.0 0.00 0.01 0.01 40 1024.1
20260901193049 82 208 2.0 2.0 0.00 0.01 0.01 38 1024.2
20260901192544 81 137 2.0 2.0 0.00 0.01 0.01 36 1024.1
20260901192040 81 189 1.0 2.0 0.00 0.01 0.01 37 1024.6
20260901191536 79 87 1.0 1.0 0.00 0.01 0.01 42 1024.1
20260901191032 80 114 0.0 1.0 0.00 0.01 0.01 37 1024.1
20260901190526 79 233 1.0 1.0 0.00 0.01 0.01 44 1024.3
20260901190026 80 159 0.0 1.0 0.00 0.01 0.01 39 1024.5
20260901185519 80 230 1.0 2.0 0.00 0.01 0.01 36 1024.2
20260901185018 80 233 1.0 2.0 0.00 0.01 0.01 38 1024.6
20260901184514 79 118 0.0 0.0 0.00 0.01 0.01 41 1024.7
20260901184009 79 123 1.0 2.0 0.00 0.01 0.01 44 1024.8
20260901183503 78 239 2.0 2.0 0.00 0.01 0.01 38 1024.9
20260901182959 78 205 1.0 2.0 0.00 0.01 0.01 38 1024.8
20260901182454 77 145 0.0 1.0 0.00 0.01 0.01 42 1024.9
20260901181948 76 167 2.0 2.0 0.00 0.01 0.01 43 1024.9
20260901181443 75 132 0.0 0.0 0.00 0.01 0.01 45 1024.9
20260901180941 75 225 0.0 1.0 0.00 0.01 0.01 46 1024.7
20260901180436 74 191 1.0 2.0 0.00 0.01 0.01 45 1024.7
20260901175934 73 200 0.0 1.0 0.00 0.01 0.01 49 1024.9
20260901175429 73 218 2.0 2.0 0.00 0.01 0.01 49 1025.1
20260901174924 73 198 0.0 0.0 0.00 0.01 0.01 50 1025.2
20260901174420 72 161 1.0 1.0 0.00 0.01 0.01 53 1025.2
20260901173916 71 96 0.0 0.0 0.00 0.01 0.01 55 1025.3
20260901173410 71 169 1.0 1.0 0.00 0.01 0.01 53 1025.1
20260901172907 71 114 2.0 2.0 0.00 0.01 0.01 53 1025.3
20260901172401 70 179 1.0 1.0 0.00 0.01 0.01 52 1025.3
20260901171859 70 103 0.0 0.0 0.00 0.01 0.01 55 1025.2
20260901171358 70 155 0.0 1.0 0.00 0.01 0.01 56 1025.6
20260901170857 69 196 0.0 0.0 0.00 0.01 0.01 55 1025.8
20260901170352 69 142 0.0 0.0 0.00 0.01 0.01 55 1025.8
20260901165851 68 159 0.0 0.0 0.00 0.01 0.01 53 1025.6
20260901165346 68 144 0.0 0.0 0.00 0.01 0.01 63 1025.8
20260901164843 67 131 0.0 0.0 0.00 0.01 0.01 60 1025.7
20260901164338 67 177 0.0 0.0 0.00 0.01 0.01 58 1025.7
20260901163837 66 184 0.0 0.0 0.00 0.01 0.01 60 1025.8
20260901163333 66 66 0.0 1.0 0.00 0.01 0.01 65 1025.4
20260901162828 65 103 0.0 0.0 0.00 0.01 0.01 65 1025.7
20260901162327 65 194 0.0 0.0 0.00 0.01 0.01 63 1025.8
20260901161826 65 145 0.0 1.0 0.00 0.01 0.01 66 1025.8
20260901161320 65 146 1.0 2.0 0.00 0.01 0.01 64 1025.9
20260901160816 64 144 0.0 0.0 0.00 0.01 0.01 66 1025.8
20260901160312 63 16 2.0 2.0 0.00 0.01 0.01 68 1025.8
20260901155811 63 34 1.0 2.0 0.00 0.01 0.01 69 1026.0
20260901155306 63 153 0.0 1.0 0.00 0.01 0.01 69 1025.9
20260901154803 63 194 1.0 1.0 0.00 0.01 0.01 70 1026.0
20260901154256 62 107 0.0 1.0 0.00 0.01 0.01 69 1025.8
20260901153751 62 139 0.0 0.0 0.00 0.01 0.01 73 1026.0
20260901153251 62 155 0.0 0.0 0.00 0.01 0.01 73 1026.0
20260901152750 62 100 1.0 1.0 0.00 0.01 0.01 72 1025.9
20260901152249 61 109 1.0 1.0 0.00 0.01 0.01 75 1026.3
20260901151744 60 92 1.0 1.0 0.00 0.01 0.01 74 1026.3
20260901151244 60 147 0.0 0.0 0.00 0.01 0.01 79 1026.3
20260901150744 59 145 0.0 0.0 0.00 0.01 0.01 81 1026.2
20260901150242 59 117 0.0 1.0 0.00 0.01 0.01 81 1026.4
20260901145740 57 164 0.0 0.0 0.00 0.01 0.01 81 1026.7
20260901145234 56 176 0.0 0.0 0.00 0.01 0.01 84 1026.5
20260901144730 56 173 0.0 0.0 0.00 0.01 0.01 84 1026.5
20260901144225 57 49 1.0 1.0 0.00 0.01 0.01 83 1026.7
20260901143720 57 89 2.0 3.0 0.00 0.01 0.01 85 1026.7
20260901143216 55 147 0.0 0.0 0.00 0.01 0.01 89 1026.7
20260901142712 54 129 0.0 0.0 0.00 0.01 0.01 91 1026.8
20260901142212 54 149 0.0 0.0 0.00 0.01 0.01 92 1026.5
20260901141707 54 98 0.0 1.0 0.00 0.01 0.01 91 1026.8
20260901141207 54 146 0.0 0.0 0.00 0.01 0.01 92 1026.7
20260901140706 54 133 0.0 0.0 0.00 0.01 0.01 91 1026.9
20260901140204 52 139 0.0 0.0 0.00 0.01 0.01 99 1026.8
20260901135700 51 129 0.0 0.0 0.00 0.01 0.01 99 1027.0
20260901135154 51 95 1.0 1.0 0.00 0.01 0.01 99 1026.9
20260901134650 50 157 0.0 0.0 0.00 0.01 0.01 99 1026.9
20260901134145 49 178 0.0 0.0 0.00 0.01 0.01 99 1026.8
20260901133644 48 154 0.0 0.0 0.00 0.01 0.01 99 1026.9
20260901133143 48 149 0.0 0.0 0.00 0.01 0.01 99 1026.7
20260901132638 48 149 0.0 0.0 0.00 0.01 0.01 99 1026.5
20260901132137 48 151 0.0 0.0 0.00 0.01 0.01 99 1026.5
20260901131632 47 153 0.0 0.0 0.00 0.01 0.01 99 1026.7
20260901131126 48 164 0.0 0.0 0.00 0.01 0.01 99 1026.5
20260901130621 48 172 0.0 0.0 0.00 0.01 0.01 99 1026.5
20260901130120 48 134 0.0 1.0 0.00 0.01 0.01 99 1026.7
20260901125618 48 178 0.0 0.0 0.00 0.01 0.01 99 1026.4
20260901125113 47 178 0.0 0.0 0.00 0.01 0.01 99 1026.4
20260901124608 48 173 0.0 0.0 0.00 0.01 0.01 99 1026.4
20260901124103 48 173 0.0 0.0 0.00 0.01 0.01 99 1026.4
20260901123603 48 148 0.0 0.0 0.00 0.01 0.01 99 1026.0
20260901123057 48 148 0.0 0.0 0.00 0.01 0.01 99 1026.3
20260901122555 48 148 0.0 0.0 0.00 0.01 0.01 99 1026.4
20260901122049 49 139 0.0 0.0 0.00 0.01 0.01 99 1026.0
20260901121550 48 161 0.0 0.0 0.00 0.01 0.01 99 1026.0
20260901121045 48 182 0.0 0.0 0.00 0.01 0.01 99 1026.2
20260901120539 49 155 0.0 0.0 0.00 0.01 0.01 99 1026.0
20260901120035 49 155 0.0 0.0 0.00 0.01 0.01 99 1025.9
20260901115530 49 145 0.0 0.0 0.00 0.01 0.01 99 1026.2
20260901115027 49 161 0.0 0.0 0.00 0.01 0.01 99 1025.9
20260901114523 49 179 0.0 0.0 0.00 0.01 0.01 99 1025.8
20260901114021 49 167 0.0 0.0 0.00 0.01 0.01 99 1025.9
20260901113520 49 180 0.0 0.0 0.00 0.01 0.01 99 1026.2
20260901113016 50 180 0.0 0.0 0.00 0.01 0.01 99 1025.9
20260901112510 50 155 0.0 0.0 0.00 0.01 0.01 99 1025.8
20260901112005 50 200 0.0 0.0 0.07 0.01 0.01 99 1025.8
20260901111504 50 187 0.0 0.0 0.07 0.01 0.01 99 1025.7
20260901111003 50 166 0.0 0.0 0.00 0.00 0.00 99 1025.9
20260901110458 50 166 0.0 0.0 0.00 0.00 0.00 99 1025.7
20260901105954 50 166 0.0 0.0 0.00 0.00 0.00 99 1025.7
20260901105450 50 166 0.0 0.0 0.00 0.00 0.00 99 1025.6
20260901104949 50 166 0.0 0.0 0.00 0.00 0.00 99 1025.7
20260901104445 50 167 0.0 0.0 0.00 0.00 0.00 99 1025.8
20260901103941 51 167 0.0 0.0 0.00 0.00 0.00 99 1025.7
20260901103441 51 171 0.0 0.0 0.00 0.00 0.00 99 1025.6
20260901102936 51 150 0.0 0.0 0.00 0.00 0.00 99 1025.7
20260901102430 51 151 0.0 0.0 0.00 0.00 0.00 99 1025.6
20260901101925 51 165 0.0 0.0 0.00 0.00 0.00 99 1025.4
20260901101421 51 164 0.0 0.0 0.00 0.00 0.00 99 1025.4
20260901100920 51 167 0.0 0.0 0.00 0.00 0.00 99 1025.6
20260901100414 51 167 0.0 0.0 0.00 0.00 0.00 99 1025.6
20260901095908 51 167 0.0 0.0 0.00 0.00 0.00 99 1025.7
20260901095406 51 167 0.0 0.0 0.00 0.00 0.00 99 1025.7
20260901094900 51 167 0.0 0.0 0.00 0.00 0.00 99 1025.8
20260901094354 52 166 0.0 0.0 0.00 0.00 0.00 99 1025.8
20260901093849 51 175 0.0 0.0 0.00 0.00 0.00 99 1025.7
20260901093348 52 175 0.0 0.0 0.00 0.00 0.00 99 1025.9
20260901092845 52 189 0.0 0.0 0.00 0.00 0.00 99 1025.6
20260901092340 52 183 0.0 0.0 0.00 0.00 0.00 99 1025.6
20260901091836 52 115 0.0 1.0 0.00 0.00 0.00 99 1025.6
20260901091336 52 174 0.0 0.0 0.00 0.00 0.00 99 1025.8
20260901090831 52 186 0.0 0.0 0.00 0.00 0.00 99 1025.8
20260901090325 52 181 0.0 0.0 0.00 0.00 0.00 99 1025.8
20260901085821 52 184 0.0 0.0 0.00 0.00 0.00 99 1025.7
20260901085322 52 200 0.0 0.0 0.00 0.00 0.00 99 1026.3
20260901084819 52 187 0.0 0.0 0.00 0.00 0.00 99 1025.9
20260901084314 52 187 0.0 0.0 0.00 0.00 0.00 99 1025.8
20260901083809 53 207 0.0 0.0 0.00 0.00 0.00 99 1025.9
20260901083309 53 159 0.0 0.0 0.00 0.00 0.00 99 1026.2
20260901082807 53 115 0.0 1.0 0.00 0.00 0.00 99 1025.9
20260901082306 53 145 0.0 0.0 0.00 0.00 0.00 99 1025.9
20260901081757 53 145 0.0 0.0 0.00 0.00 0.00 99 1026.2
20260901081252 53 147 0.0 0.0 0.00 0.00 0.00 99 1026.0
20260901080747 53 180 0.0 0.0 0.00 0.00 0.00 99 1026.2
20260901080246 53 180 0.0 0.0 0.00 0.00 0.00 99 1026.5
20260901075741 53 180 0.0 0.0 0.00 0.00 0.00 99 1026.4
20260901075235 53 180 0.0 0.0 0.00 0.00 0.00 99 1026.2
20260901074730 53 180 0.0 0.0 0.00 0.00 0.00 99 1026.4
20260901074225 53 180 0.0 0.0 0.00 0.00 0.00 99 1026.3
20260901073722 53 148 0.0 0.0 0.00 0.00 0.00 99 1026.3
20260901073217 53 89 1.0 1.0 0.00 0.00 0.00 99 1026.4
20260901072712 53 97 0.0 0.0 0.00 0.00 0.00 99 1026.4
20260901072207 53 182 0.0 0.0 0.00 0.00 0.00 99 1026.3
20260901071706 53 194 0.0 0.0 0.00 0.00 0.00 99 1026.2
20260901071201 53 194 0.0 0.0 0.00 0.00 0.00 99 1026.4
20260901070655 53 194 0.0 0.0 0.00 0.00 0.00 99 1026.5
20260901070150 53 141 0.0 0.0 0.00 0.00 0.00 99 1026.5
20260901065650 53 141 0.0 0.0 0.00 0.00 0.00 99 1026.4
20260901065144 53 141 0.0 0.0 0.00 0.00 0.00 99 1026.8
20260901064641 53 146 0.0 0.0 0.00 0.00 0.00 99 1026.7
20260901064138 53 167 0.0 0.0 0.00 0.00 0.00 99 1026.8
20260901063635 53 176 0.0 0.0 0.00 0.00 0.00 99 1026.5
20260901063130 53 179 0.0 0.0 0.00 0.00 0.00 99 1026.5
20260901062626 53 219 0.0 1.0 0.00 0.00 0.00 99 1026.2
20260901062121 53 172 0.0 0.0 0.00 0.00 0.00 99 1026.5
20260901061617 53 200 0.0 0.0 0.00 0.00 0.00 99 1026.4
20260901061111 53 198 0.0 0.0 0.00 0.00 0.00 99 1026.4
20260901060606 53 211 0.0 0.0 0.00 0.00 0.00 99 1026.4
20260901055556 53 204 0.0 0.0 0.00 0.19 0.19 99 1026.2
20260901055054 53 208 0.0 0.0 0.00 0.19 0.19 99 1026.3
20260901054550 54 183 0.0 0.0 0.00 0.19 0.19 99 1025.9
20260901054046 54 162 0.0 0.0 0.00 0.19 0.19 99 1025.9
20260901053542 54 167 0.0 0.0 0.00 0.19 0.19 98 1025.8
20260901053037 53 167 0.0 0.0 0.00 0.19 0.19 98 1025.7
20260901052538 54 167 0.0 0.0 0.00 0.19 0.19 98 1025.8
20260901052032 54 167 0.0 0.0 0.00 0.19 0.19 98 1026.2
20260901051527 55 145 0.0 0.0 0.00 0.19 0.19 98 1026.3
20260901051026 54 143 0.0 0.0 0.00 0.19 0.19 98 1026.0
20260901050521 54 209 0.0 0.0 0.00 0.19 0.19 98 1026.4
20260901050017 54 170 0.0 0.0 0.00 0.19 0.19 98 1026.2
20260901045512 54 186 0.0 0.0 0.00 0.19 0.19 98 1026.2
20260901045006 54 206 0.0 0.0 0.00 0.19 0.19 98 1026.3
20260901044502 55 106 0.0 0.0 0.00 0.19 0.19 98 1026.0
20260901043958 55 160 0.0 0.0 0.00 0.19 0.19 98 1026.3
20260901043454 55 185 0.0 0.0 0.00 0.19 0.19 98 1026.0
20260901042953 55 196 0.0 0.0 0.00 0.19 0.19 98 1026.3
20260901042447 55 198 0.0 0.0 0.00 0.19 0.19 98 1026.4
20260901041943 55 143 0.0 0.0 0.00 0.19 0.19 98 1026.2
20260901041438 55 143 0.0 0.0 0.00 0.19 0.19 98 1026.4
20260901040937 55 143 0.0 0.0 0.00 0.19 0.19 98 1026.3
20260901040432 55 126 0.0 0.0 0.00 0.19 0.19 98 1026.3
20260901035926 55 130 0.0 0.0 0.00 0.19 0.19 98 1026.0
20260901035424 55 176 0.0 0.0 0.00 0.19 0.19 98 1026.0
20260901034923 55 147 0.0 0.0 0.00 0.19 0.19 97 1025.9
20260901034418 55 144 0.0 0.0 0.00 0.19 0.19 97 1026.0
20260901033913 55 193 0.0 0.0 0.00 0.19 0.19 97 1026.0
20260901033413 55 193 0.0 0.0 0.00 0.19 0.19 97 1025.9
20260901032911 56 153 0.0 0.0 0.00 0.19 0.19 97 1025.7
20260901032410 56 124 0.0 0.0 0.00 0.19 0.19 97 1025.2
20260901031906 56 181 0.0 0.0 0.00 0.19 0.19 96 1025.2
20260901031401 56 124 0.0 0.0 0.00 0.19 0.19 96 1025.2
20260901030901 56 161 0.0 0.0 0.00 0.19 0.19 96 1025.7
20260901030356 56 180 0.0 0.0 0.00 0.19 0.19 96 1025.4
20260901025855 56 195 0.0 0.0 0.00 0.19 0.19 96 1025.4
20260901025350 57 103 0.0 0.0 0.00 0.19 0.19 96 1025.4
20260901024845 56 139 0.0 0.0 0.00 0.19 0.19 96 1025.2
20260901024344 57 157 0.0 0.0 0.00 0.19 0.19 95 1024.9
20260901023843 57 161 0.0 0.0 0.00 0.19 0.19 95 1024.8
20260901023338 57 201 0.0 0.0 0.00 0.19 0.19 94 1024.9
20260901022833 57 185 0.0 0.0 0.00 0.19 0.19 92 1024.6
20260901022329 58 187 0.0 0.0 0.00 0.19 0.19 93 1024.8
20260901021824 58 194 0.0 0.0 0.00 0.19 0.19 93 1024.6
20260901021319 58 171 0.0 0.0 0.00 0.19 0.19 94 1024.7
20260901020814 58 187 0.0 0.0 0.00 0.19 0.19 94 1024.8
20260901020309 58 192 0.0 1.0 0.00 0.19 0.19 96 1024.7
20260901015804 58 191 0.0 0.0 0.00 0.19 0.19 96 1024.5
20260901015301 58 185 0.0 0.0 0.00 0.19 0.19 96 1024.7
20260901014759 58 182 0.0 0.0 0.00 0.19 0.19 95 1024.7
20260901014255 58 183 0.0 0.0 0.00 0.19 0.19 95 1024.8
20260901013751 59 166 0.0 0.0 0.00 0.19 0.19 95 1024.9
20260901013246 59 188 0.0 0.0 0.00 0.19 0.19 94 1025.2
20260901012742 59 188 0.0 0.0 0.00 0.19 0.19 93 1024.7
20260901012241 59 200 0.0 0.0 0.00 0.19 0.19 92 1024.8
20260901011737 60 157 0.0 0.0 0.00 0.19 0.19 92 1024.6
20260901011232 60 181 0.0 0.0 0.00 0.19 0.19 92 1024.2
20260901010726 60 207 0.0 0.0 0.00 0.19 0.19 92 1024.7
20260901010221 61 184 0.0 0.0 0.00 0.19 0.19 92 1024.8
20260901005720 61 151 0.0 0.0 0.00 0.19 0.19 92 1024.8
20260901005215 61 164 0.0 0.0 0.00 0.19 0.19 92 1024.8
20260901004715 61 164 0.0 0.0 0.00 0.19 0.19 92 1024.7
20260901004209 61 168 0.0 0.0 0.00 0.19 0.19 91 1024.9
20260901003704 61 146 0.0 0.0 0.00 0.19 0.19 89 1024.9
20260901003203 61 201 0.0 0.0 0.00 0.19 0.19 90 1025.2
20260901002657 61 123 0.0 0.0 0.00 0.19 0.19 88 1025.4
20260901002152 62 141 0.0 0.0 0.00 0.19 0.19 88 1025.6
20260901001648 62 182 0.0 0.0 0.00 0.19 0.19 89 1025.6
20260901001143 62 159 0.0 0.0 0.00 0.19 0.19 87 1025.4
20260901000638 62 83 0.0 1.0 0.00 0.19 0.19 86 1025.6
20260901000133 62 153 0.0 0.0 0.00 0.19 0.19 86 1025.8
20260831235627 62 55 0.0 1.0 0.00 0.19 0.19 87 1025.7
20260831235122 62 114 0.0 1.0 0.00 0.19 0.19 87 1025.7
20260831234621 62 177 1.0 1.0 0.00 0.19 0.19 89 1025.8
20260831234117 62 123 0.0 0.0 0.00 0.19 0.19 88 1025.9
20260831233612 62 141 1.0 1.0 0.00 0.19 0.19 87 1025.6
20260831233108 62 121 0.0 0.0 0.00 0.19 0.19 88 1025.9
20260831232603 62 177 0.0 0.0 0.00 0.19 0.19 90 1025.8
20260831232059 61 193 0.0 0.0 0.00 0.19 0.19 92 1026.2
20260831231555 61 156 0.0 0.0 0.00 0.19 0.19 92 1025.9
20260831231050 61 147 0.0 0.0 0.00 0.19 0.19 93 1025.8
20260831230545 60 195 0.0 0.0 0.00 0.19 0.19 90 1026.3
20260831230040 60 146 0.0 0.0 0.00 0.19 0.19 91 1026.3
20260831225535 61 100 0.0 1.0 0.00 0.19 0.19 93 1026.0
20260831225030 61 205 0.0 0.0 0.00 0.19 0.19 94 1026.0
20260831224525 61 149 0.0 1.0 0.00 0.19 0.19 94 1026.3
20260831224020 61 141 0.0 0.0 0.00 0.19 0.19 93 1026.2
20260831223515 61 144 0.0 0.0 0.00 0.19 0.19 93 1026.0
20260831223011 61 221 0.0 0.0 0.00 0.19 0.19 94 1025.9
20260831222508 61 113 0.0 0.0 0.00 0.19 0.19 94 1026.4
20260831222007 61 131 0.0 0.0 0.07 0.19 0.19 94 1026.4
20260831221503 61 115 0.0 0.0 0.07 0.19 0.19 93 1027.1
20260831220958 61 194 0.0 0.0 0.00 0.18 0.18 92 1026.9
20260831220453 62 200 0.0 0.0 0.05 0.18 0.18 93 1027.0
20260831215948 62 194 0.0 0.0 0.05 0.18 0.18 92 1027.1
20260831215444 61 179 0.0 0.0 0.00 0.17 0.17 92 1027.0
20260831214940 61 187 0.0 0.0 0.00 0.17 0.17 93 1026.8
20260831214437 61 221 0.0 0.0 0.00 0.17 0.17 94 1026.7
20260831213933 61 163 0.0 0.0 0.00 0.17 0.17 93 1027.0
20260831213429 61 194 0.0 0.0 0.07 0.17 0.17 93 1026.7
20260831212929 61 184 0.0 0.0 0.07 0.17 0.17 93 1026.8
20260831212425 61 164 0.0 0.0 0.05 0.16 0.16 93 1026.8